Year,Month,Day,Hour,Minute,Value (Times are PST for temperature in C)
2003,04,17,08,06,8.00
2003,04,17,08,07,7.90
2003,04,17,08,08,8.00
2003,04,17,08,09,8.00
2003,04,17,08,10,8.00
2003,04,17,08,11,8.10
2003,04,17,08,12,8.10
2003,04,17,08,13,8.20
2003,04,17,08,14,8.00
2003,04,17,08,15,8.00
2003,04,17,08,16,7.90
2003,04,17,08,17,8.00
2003,04,17,08,18,8.00
2003,04,17,08,19,8.00
2003,04,17,08,20,8.00
2003,04,17,08,21,8.00
2003,04,17,08,22,8.00
2003,04,17,08,23,8.00
2003,04,17,08,24,8.00
2003,04,17,08,25,8.10
2003,04,17,08,26,8.10
2003,04,17,08,27,8.20
2003,04,17,08,28,8.20
2003,04,17,08,29,8.10
2003,04,17,08,30,8.00
2003,04,17,08,31,8.10
2003,04,17,08,32,8.10
2003,04,17,08,33,8.20
2003,04,17,08,34,8.20
2003,04,17,08,35,8.20
2003,04,17,08,36,8.20
2003,04,17,08,37,8.10
2003,04,17,08,38,8.20
2003,04,17,08,39,8.30
2003,04,17,08,40,8.40
2003,04,17,08,41,8.50
2003,04,17,08,42,8.50
2003,04,17,08,43,8.50
2003,04,17,08,44,8.50
2003,04,17,08,45,8.50
2003,04,17,08,46,8.70
2003,04,17,08,47,8.60
2003,04,17,08,48,8.60
2003,04,17,08,49,8.60
2003,04,17,08,50,8.60
2003,04,17,08,51,8.60
2003,04,17,08,52,8.70
2003,04,17,08,53,8.70
2003,04,17,08,54,8.60
2003,04,17,08,55,8.60
2003,04,17,08,56,8.60
2003,04,17,08,57,8.70
2003,04,17,08,58,8.80
2003,04,17,08,59,8.80
2003,04,17,09,00,8.80
2003,04,17,09,01,8.80
2003,04,17,09,02,8.70
2003,04,17,09,03,8.80
2003,04,17,09,04,8.80
2003,04,17,09,05,8.90
2003,04,17,09,06,8.90
2003,04,17,09,07,8.90
2003,04,17,09,08,8.90
2003,04,17,09,09,8.90
2003,04,17,09,10,9.10
2003,04,17,09,11,9.10
2003,04,17,09,12,9.20
2003,04,17,09,13,9.20
2003,04,17,09,14,9.20
2003,04,17,09,15,9.20
2003,04,17,09,16,9.20
2003,04,17,09,17,9.40
2003,04,17,09,18,9.50
2003,04,17,09,19,9.60
2003,04,17,09,20,9.70
2003,04,17,09,21,9.80
2003,04,17,09,22,9.70
2003,04,17,09,23,9.70
2003,04,17,09,24,9.80
2003,04,17,09,25,9.80
2003,04,17,09,26,9.90
2003,04,17,09,27,9.80
2003,04,17,09,28,9.80
2003,04,17,09,29,9.70
2003,04,17,09,30,9.70
2003,04,17,09,31,9.70
2003,04,17,09,32,9.70
2003,04,17,09,33,9.70
2003,04,17,09,34,9.90
2003,04,17,09,35,9.90
2003,04,17,09,36,9.80
2003,04,17,09,37,9.90
2003,04,17,09,38,10.10
2003,04,17,09,39,10.10
2003,04,17,09,40,10.40
2003,04,17,09,41,10.40
2003,04,17,09,42,10.40
2003,04,17,09,43,10.40
2003,04,17,09,44,10.40
2003,04,17,09,45,10.30
2003,04,17,09,46,10.40
2003,04,17,09,47,10.60
2003,04,17,09,48,10.60
2003,04,17,09,49,10.60
2003,04,17,09,50,10.60
2003,04,17,09,51,10.70
2003,04,17,09,52,10.70
2003,04,17,09,53,10.80
2003,04,17,09,54,10.80
2003,04,17,09,55,10.90
2003,04,17,09,56,10.90
2003,04,17,09,57,10.90
2003,04,17,09,58,10.90
2003,04,17,09,59,10.90
2003,04,17,10,00,11.00
2003,04,17,10,01,11.00
2003,04,17,10,02,11.10
2003,04,17,10,03,11.00
2003,04,17,10,04,11.10
2003,04,17,10,05,11.10
2003,04,17,10,06,11.10
2003,04,17,10,07,11.10
2003,04,17,10,08,11.10
2003,04,17,10,09,11.10
2003,04,17,10,10,11.10
2003,04,17,10,11,11.10
2003,04,17,10,12,11.30
2003,04,17,10,13,11.30
2003,04,17,10,14,11.20
2003,04,17,10,15,11.30
2003,04,17,10,16,11.30
2003,04,17,10,17,11.40
2003,04,17,10,18,11.40
2003,04,17,10,19,11.30
2003,04,17,10,20,11.40
2003,04,17,10,21,11.50
2003,04,17,10,22,11.60
2003,04,17,10,23,11.80
2003,04,17,10,24,11.70
2003,04,17,10,25,11.80
2003,04,17,10,26,11.80
2003,04,17,10,27,11.90
2003,04,17,10,28,12.10
2003,04,17,10,29,12.20
2003,04,17,10,30,12.30
2003,04,17,10,31,12.20
2003,04,17,10,32,12.10
2003,04,17,10,33,12.10
2003,04,17,10,34,12.10
2003,04,17,10,35,12.10
2003,04,17,10,36,12.00
2003,04,17,10,37,11.80
2003,04,17,10,38,11.90
2003,04,17,10,39,11.90
2003,04,17,10,40,12.00
2003,04,17,10,41,12.00
2003,04,17,10,42,12.00
2003,04,17,10,43,11.90
2003,04,17,10,44,11.90
2003,04,17,10,45,12.00
2003,04,17,10,46,12.00
2003,04,17,10,47,12.00
2003,04,17,10,48,12.00
2003,04,17,10,49,11.80
2003,04,17,10,50,11.80
2003,04,17,10,51,11.60
2003,04,17,10,52,11.50
2003,04,17,10,53,11.40
2003,04,17,10,54,11.50
2003,04,17,10,55,11.50
2003,04,17,10,56,11.60
2003,04,17,10,57,11.60
2003,04,17,10,58,11.60
2003,04,17,10,59,11.50
2003,04,17,11,00,11.60
2003,04,17,11,01,11.60
2003,04,17,11,02,11.80
2003,04,17,11,03,11.80
2003,04,17,11,04,11.70
2003,04,17,11,05,11.50
2003,04,17,11,06,11.50
2003,04,17,11,07,11.60
2003,04,17,11,08,11.50
2003,04,17,11,09,11.60
2003,04,17,11,10,11.60
2003,04,17,11,11,11.50
2003,04,17,11,12,11.60
2003,04,17,11,13,11.60
2003,04,17,11,14,11.70
2003,04,17,11,15,11.70
2003,04,17,11,16,11.80
2003,04,17,11,17,11.90
2003,04,17,11,18,12.00
2003,04,17,11,19,12.00
2003,04,17,11,20,11.90
2003,04,17,11,21,11.90
2003,04,17,11,22,11.80
2003,04,17,11,23,11.90
2003,04,17,11,24,12.00
2003,04,17,11,25,12.00
2003,04,17,11,26,11.90
2003,04,17,11,27,11.90
2003,04,17,11,28,11.80
2003,04,17,11,29,11.80
2003,04,17,11,30,11.70
2003,04,17,11,31,11.70
2003,04,17,11,32,11.60
2003,04,17,11,33,11.60
2003,04,17,11,34,11.60
2003,04,17,11,35,11.60
2003,04,17,11,36,11.60
2003,04,17,11,37,11.60
2003,04,17,11,38,11.70
2003,04,17,11,39,11.60
2003,04,17,11,40,11.70
2003,04,17,11,41,11.70
2003,04,17,11,42,11.60
2003,04,17,11,43,11.60
2003,04,17,11,44,11.70
2003,04,17,11,45,11.90
2003,04,17,11,46,12.00
2003,04,17,11,47,12.10
2003,04,17,11,48,12.20
2003,04,17,11,49,12.20
2003,04,17,11,50,12.30
2003,04,17,11,51,12.20
2003,04,17,11,52,12.10
2003,04,17,11,53,12.10
2003,04,17,11,54,12.10
2003,04,17,11,55,12.10
2003,04,17,11,56,11.90
2003,04,17,11,57,11.80
2003,04,17,11,58,11.70
2003,04,17,11,59,11.80
2003,04,17,12,00,11.90
2003,04,17,12,01,11.90
2003,04,17,12,02,12.10
2003,04,17,12,03,12.30
2003,04,17,12,04,12.30
2003,04,17,12,05,12.50
2003,04,17,12,06,12.60
2003,04,17,12,07,12.90
2003,04,17,12,08,13.00
2003,04,17,12,09,13.10
2003,04,17,12,10,13.00
2003,04,17,12,11,12.90
2003,04,17,12,12,12.80
2003,04,17,12,13,12.90
2003,04,17,12,14,13.10
2003,04,17,12,15,13.00
2003,04,17,12,16,13.00
2003,04,17,12,17,13.10
2003,04,17,12,18,13.10
2003,04,17,12,19,13.20
2003,04,17,12,20,13.40
2003,04,17,12,21,13.60
2003,04,17,12,22,13.80
2003,04,17,12,23,13.50
2003,04,17,12,24,13.50
2003,04,17,12,25,13.40
2003,04,17,12,26,13.20
2003,04,17,12,27,13.20
2003,04,17,12,28,13.20
2003,04,17,12,29,13.40
2003,04,17,12,30,13.50
2003,04,17,12,31,13.50
2003,04,17,12,32,13.50
2003,04,17,12,33,13.60
2003,04,17,12,34,13.60
2003,04,17,12,35,13.30
2003,04,17,12,36,13.20
2003,04,17,12,37,13.10
2003,04,17,12,38,13.00
2003,04,17,12,39,13.10
2003,04,17,12,40,13.20
2003,04,17,12,41,13.20
2003,04,17,12,42,13.40
2003,04,17,12,43,13.60
2003,04,17,12,44,13.60
2003,04,17,12,45,13.50
2003,04,17,12,46,13.30
2003,04,17,12,47,13.10
2003,04,17,12,48,13.30
2003,04,17,12,49,13.30
2003,04,17,12,50,13.40
2003,04,17,12,51,13.40
2003,04,17,12,52,13.40
2003,04,17,12,53,13.30
2003,04,17,12,54,13.50
2003,04,17,12,55,13.50
2003,04,17,12,56,13.50
2003,04,17,12,57,13.30
2003,04,17,12,58,13.00
2003,04,17,12,59,12.90
2003,04,17,13,00,12.80
2003,04,17,13,01,12.90
2003,04,17,13,02,12.90
2003,04,17,13,03,12.80
2003,04,17,13,04,12.80
2003,04,17,13,05,12.80
2003,04,17,13,06,12.80
2003,04,17,13,07,12.70
2003,04,17,13,08,12.70
2003,04,17,13,09,12.90
2003,04,17,13,10,13.00
2003,04,17,13,11,13.20
2003,04,17,13,12,13.20
2003,04,17,13,13,13.20
2003,04,17,13,14,13.20
2003,04,17,13,15,13.20
2003,04,17,13,16,12.90
2003,04,17,13,17,12.70
2003,04,17,13,18,12.70
2003,04,17,13,19,12.60
2003,04,17,13,20,12.60
2003,04,17,13,21,12.50
2003,04,17,13,22,12.60
2003,04,17,13,23,12.70
2003,04,17,13,24,12.90
2003,04,17,13,25,13.00
2003,04,17,13,26,13.10
2003,04,17,13,27,13.20
2003,04,17,13,28,13.20
2003,04,17,13,29,13.20
2003,04,17,13,30,13.30
2003,04,17,13,31,13.40
2003,04,17,13,32,13.60
2003,04,17,13,33,13.60
2003,04,17,13,34,13.60
2003,04,17,13,35,13.70
2003,04,17,13,36,13.60
2003,04,17,13,37,13.40
2003,04,17,13,38,13.30
2003,04,17,13,39,13.10
2003,04,17,13,40,13.10
2003,04,17,13,41,13.10
2003,04,17,13,42,13.10
2003,04,17,13,43,13.00
2003,04,17,13,44,12.80
2003,04,17,13,45,12.60
2003,04,17,13,46,12.50
2003,04,17,13,47,12.30
2003,04,17,13,48,12.30
2003,04,17,13,49,12.40
2003,04,17,13,50,12.40
2003,04,17,13,51,12.40
2003,04,17,13,52,12.40
2003,04,17,13,53,12.30
2003,04,17,13,54,12.30
2003,04,17,13,55,12.30
2003,04,17,13,56,12.20
2003,04,17,13,57,12.20
2003,04,17,13,58,12.40
2003,04,17,13,59,12.60
2003,04,17,14,00,12.90
2003,04,17,14,01,13.00
2003,04,17,14,02,13.00
2003,04,17,14,03,13.00
2003,04,17,14,04,12.80
2003,04,17,14,05,12.60
2003,04,17,14,06,12.40
2003,04,17,14,07,12.20
2003,04,17,14,08,12.20
2003,04,17,14,09,12.30
2003,04,17,14,10,12.50
2003,04,17,14,11,12.60
2003,04,17,14,12,12.70
2003,04,17,14,13,12.70
2003,04,17,14,14,12.80
2003,04,17,14,15,12.80
2003,04,17,14,16,12.80
2003,04,17,14,17,12.70
2003,04,17,14,18,12.70
2003,04,17,14,19,12.60
2003,04,17,14,20,12.40
2003,04,17,14,21,12.30
2003,04,17,14,22,12.30
2003,04,17,14,23,12.50
2003,04,17,14,24,12.70
2003,04,17,14,25,12.70
2003,04,17,14,26,12.70
2003,04,17,14,27,12.80
2003,04,17,14,28,12.90
2003,04,17,14,29,13.10
2003,04,17,14,30,13.10
2003,04,17,14,31,13.10
2003,04,17,14,32,13.30
2003,04,17,14,33,13.40
2003,04,17,14,34,13.50
2003,04,17,14,35,13.60
2003,04,17,14,36,13.60
2003,04,17,14,37,13.70
2003,04,17,14,38,13.80
2003,04,17,14,39,14.00
2003,04,17,14,40,14.00
2003,04,17,14,41,13.90
2003,04,17,14,42,13.80
2003,04,17,14,43,13.90
2003,04,17,14,44,13.80
2003,04,17,14,45,13.90
2003,04,17,14,46,13.90
2003,04,17,14,47,13.80
2003,04,17,14,48,13.70
2003,04,17,14,49,13.60
2003,04,17,14,50,13.40
2003,04,17,14,51,13.20
2003,04,17,14,52,12.90
2003,04,17,14,53,12.80
2003,04,17,14,54,12.50
2003,04,17,14,55,12.40
2003,04,17,14,56,12.10
2003,04,17,14,57,11.60
2003,04,17,14,58,11.50
2003,04,17,14,59,11.40
2003,04,17,15,00,11.40
2003,04,17,15,01,11.50
2003,04,17,15,02,11.70
2003,04,17,15,03,11.80
2003,04,17,15,04,11.80
2003,04,17,15,05,11.60
2003,04,17,15,06,11.60
2003,04,17,15,07,11.60
2003,04,17,15,08,11.30
2003,04,17,15,09,11.00
2003,04,17,15,10,11.00
2003,04,17,15,11,11.10
2003,04,17,15,12,11.20
2003,04,17,15,13,11.50
2003,04,17,15,14,11.70
2003,04,17,15,15,11.70
2003,04,17,15,16,11.80
2003,04,17,15,17,11.80
2003,04,17,15,18,11.90
2003,04,17,15,19,12.30
2003,04,17,15,20,12.40
2003,04,17,15,21,12.40
2003,04,17,15,22,12.10
2003,04,17,15,23,12.20
2003,04,17,15,24,12.20
2003,04,17,15,25,12.40
2003,04,17,15,26,12.60
2003,04,17,15,27,12.60
2003,04,17,15,28,12.40
2003,04,17,15,29,12.10
2003,04,17,15,30,12.20
2003,04,17,15,31,12.40
2003,04,17,15,32,12.60
2003,04,17,15,33,12.70
2003,04,17,15,34,12.50
2003,04,17,15,35,12.20
2003,04,17,15,36,11.80
2003,04,17,15,37,11.70
2003,04,17,15,38,11.50
2003,04,17,15,39,11.30
2003,04,17,15,40,11.00
2003,04,17,15,41,10.90
2003,04,17,15,42,10.90
2003,04,17,15,43,10.90
2003,04,17,15,44,10.80
2003,04,17,15,45,10.70
2003,04,17,15,46,10.50
2003,04,17,15,47,10.60
2003,04,17,15,48,10.70
2003,04,17,15,49,10.70
2003,04,17,15,50,10.90
2003,04,17,15,51,11.00
2003,04,17,15,52,11.00
2003,04,17,15,53,11.00
2003,04,17,15,54,10.80
2003,04,17,15,55,10.60
2003,04,17,15,56,10.50
2003,04,17,15,57,10.50
2003,04,17,15,58,10.30
2003,04,17,15,59,10.30
2003,04,17,16,00,10.50
2003,04,17,16,01,10.60
2003,04,17,16,02,10.60
2003,04,17,16,03,10.80
2003,04,17,16,04,10.80
2003,04,17,16,05,10.80
2003,04,17,16,06,10.90
2003,04,17,16,07,11.10
2003,04,17,16,08,10.80
2003,04,17,16,09,10.80
2003,04,17,16,10,10.90
2003,04,17,16,11,10.90
2003,04,17,16,12,10.80
2003,04,17,16,13,10.80
2003,04,17,16,14,10.70
2003,04,17,16,15,10.70
2003,04,17,16,16,10.80
2003,04,17,16,17,10.90
2003,04,17,16,18,10.90
2003,04,17,16,19,11.10
2003,04,17,16,20,11.10
2003,04,17,16,21,11.20
2003,04,17,16,22,11.30
2003,04,17,16,23,11.20
2003,04,17,16,24,11.10
2003,04,17,16,25,10.90
2003,04,17,16,26,10.80
2003,04,17,16,27,10.90
2003,04,17,16,28,10.80
2003,04,17,16,29,10.80
2003,04,17,16,30,10.80
2003,04,17,16,31,10.80
2003,04,17,16,32,10.70
2003,04,17,16,33,10.70
2003,04,17,16,34,10.80
2003,04,17,16,35,10.80
2003,04,17,16,36,10.90
2003,04,17,16,37,11.00
2003,04,17,16,38,11.10
2003,04,17,16,39,11.10
2003,04,17,16,40,11.10
2003,04,17,16,41,11.20
2003,04,17,16,42,11.40
2003,04,17,16,43,11.40
2003,04,17,16,44,11.50
2003,04,17,16,45,11.60
2003,04,17,16,46,11.60
2003,04,17,16,47,11.60
2003,04,17,16,48,11.60
2003,04,17,16,49,11.60
2003,04,17,16,50,11.60
2003,04,17,16,51,11.60
2003,04,17,16,52,11.50
2003,04,17,16,53,11.40
2003,04,17,16,54,11.30
2003,04,17,16,55,11.20
2003,04,17,16,56,11.10
2003,04,17,16,57,11.10
2003,04,17,16,58,10.90
2003,04,17,16,59,10.70
2003,04,17,17,00,10.70
2003,04,17,17,01,10.70
2003,04,17,17,02,10.60
2003,04,17,17,03,10.60
2003,04,17,17,04,10.50
2003,04,17,17,05,10.50
2003,04,17,17,06,10.30
2003,04,17,17,07,10.30
2003,04,17,17,08,10.30
2003,04,17,17,09,10.20
2003,04,17,17,10,10.20
2003,04,17,17,11,10.20
2003,04,17,17,12,10.20
2003,04,17,17,13,10.30
2003,04,17,17,14,10.40
2003,04,17,17,15,10.40
2003,04,17,17,16,10.30
2003,04,17,17,17,10.20
2003,04,17,17,18,10.10
2003,04,17,17,19,10.00
2003,04,17,17,20,9.90
2003,04,17,17,21,9.90
2003,04,17,17,22,9.80
2003,04,17,17,23,9.80
2003,04,17,17,24,9.80
2003,04,17,17,25,9.90
2003,04,17,17,26,9.90
2003,04,17,17,27,9.80
2003,04,17,17,28,9.90
2003,04,17,17,29,9.80
2003,04,17,17,30,9.80
2003,04,17,17,31,9.80
2003,04,17,17,32,9.70
2003,04,17,17,33,9.80
2003,04,17,17,34,9.70
2003,04,17,17,35,9.70
2003,04,17,17,36,9.60
2003,04,17,17,37,9.70
2003,04,17,17,38,9.60
2003,04,17,17,39,9.60
2003,04,17,17,40,9.60
2003,04,17,17,41,9.60
2003,04,17,17,42,9.50
2003,04,17,17,43,9.50
2003,04,17,17,44,9.50
2003,04,17,17,45,9.50
2003,04,17,17,46,9.60
2003,04,17,17,47,9.60
2003,04,17,17,48,9.70
2003,04,17,17,49,9.70
2003,04,17,17,50,9.70
2003,04,17,17,51,9.70
2003,04,17,17,52,9.70
2003,04,17,17,53,9.70
2003,04,17,17,54,9.70
2003,04,17,17,55,9.80
2003,04,17,17,56,9.90
2003,04,17,17,57,9.90
2003,04,17,17,58,9.90
2003,04,17,17,59,9.90
2003,04,17,18,00,10.00
2003,04,17,18,01,10.00
2003,04,17,18,02,9.90
2003,04,17,18,03,9.90
2003,04,17,18,04,9.70
2003,04,17,18,05,9.70
2003,04,17,18,06,9.70
2003,04,17,18,07,9.70
2003,04,17,18,08,9.70
2003,04,17,18,09,9.70
2003,04,17,18,10,9.70
2003,04,17,18,11,9.70
2003,04,17,18,12,9.70
2003,04,17,18,13,9.70
2003,04,17,18,14,9.70
2003,04,17,18,15,9.60
2003,04,17,18,16,9.60
2003,04,17,18,17,9.60
2003,04,17,18,18,9.60
2003,04,17,18,19,9.60
2003,04,17,18,20,9.70
2003,04,17,18,21,9.70
2003,04,17,18,22,9.70
2003,04,17,18,23,9.70
2003,04,17,18,24,9.70
2003,04,17,18,25,9.70
2003,04,17,18,26,9.80
2003,04,17,18,27,9.90
2003,04,17,18,28,9.90
2003,04,17,18,29,9.90
2003,04,17,18,30,9.90
2003,04,17,18,31,9.90
2003,04,17,18,32,9.80
2003,04,17,18,33,9.70
2003,04,17,18,34,9.80
2003,04,17,18,35,10.10
2003,04,17,18,36,10.10
2003,04,17,18,37,10.00
2003,04,17,18,38,9.90
2003,04,17,18,39,9.90
2003,04,17,18,40,9.90
2003,04,17,18,41,9.90
2003,04,17,18,42,9.90
2003,04,17,18,43,9.90
2003,04,17,18,44,9.80
2003,04,17,18,45,9.80
2003,04,17,18,46,9.80
2003,04,17,18,47,9.90
2003,04,17,18,48,9.90
2003,04,17,18,49,9.90
2003,04,17,18,50,10.00
2003,04,17,18,51,10.10
2003,04,17,18,52,10.10
2003,04,17,18,53,10.10
2003,04,17,18,54,10.00
2003,04,17,18,55,10.00
2003,04,17,18,56,9.80
2003,04,17,18,57,9.80
2003,04,17,18,58,9.80
2003,04,17,18,59,10.00
2003,04,17,19,00,10.10
2003,04,17,19,01,9.90
2003,04,17,19,02,9.90
2003,04,17,19,03,9.90
2003,04,17,19,04,9.90
2003,04,17,19,05,9.90
2003,04,17,19,06,9.80
2003,04,17,19,07,9.70
2003,04,17,19,08,9.60
2003,04,17,19,09,9.50
2003,04,17,19,10,9.40
2003,04,17,19,11,9.50
2003,04,17,19,12,9.40
2003,04,17,19,13,9.40
2003,04,17,19,14,9.40
2003,04,17,19,15,9.30
2003,04,17,19,16,9.30
2003,04,17,19,17,9.20
2003,04,17,19,18,9.20
2003,04,17,19,19,9.20
2003,04,17,19,20,9.30
2003,04,17,19,21,9.40
2003,04,17,19,22,9.40
2003,04,17,19,23,9.40
2003,04,17,19,24,9.30
2003,04,17,19,25,9.40
2003,04,17,19,26,9.40
2003,04,17,19,27,9.50
2003,04,17,19,28,9.50
2003,04,17,19,29,9.40
2003,04,17,19,30,9.40
2003,04,17,19,31,9.40
2003,04,17,19,32,9.30
2003,04,17,19,33,9.30
2003,04,17,19,34,9.30
2003,04,17,19,35,9.40
2003,04,17,19,36,9.50
2003,04,17,19,37,9.40
2003,04,17,19,38,9.30
2003,04,17,19,39,9.20
2003,04,17,19,40,9.20
2003,04,17,19,41,9.20
2003,04,17,19,42,9.20
2003,04,17,19,43,9.20
2003,04,17,19,44,9.20
2003,04,17,19,45,9.20
2003,04,17,19,46,9.20
2003,04,17,19,47,9.10
2003,04,17,19,48,9.00
2003,04,17,19,49,9.00
2003,04,17,19,50,9.00
2003,04,17,19,51,9.00
2003,04,17,19,52,9.10
2003,04,17,19,53,9.00
2003,04,17,19,54,8.90
2003,04,17,19,55,8.80
2003,04,17,19,56,8.80
2003,04,17,19,57,9.00
2003,04,17,19,58,9.00
2003,04,17,19,59,9.00
2003,04,17,20,00,9.00
2003,04,17,20,01,9.00
2003,04,17,20,02,8.90
2003,04,17,20,03,8.90
2003,04,17,20,04,8.80
2003,04,17,20,05,8.90
2003,04,17,20,06,9.00
2003,04,17,20,07,9.00
2003,04,17,20,08,9.00
2003,04,17,20,09,9.00
2003,04,17,20,10,9.00
2003,04,17,20,11,9.00
2003,04,17,20,12,9.10
2003,04,17,20,13,9.10
2003,04,17,20,14,9.10
2003,04,17,20,15,9.00
2003,04,17,20,16,9.10
2003,04,17,20,17,9.00
2003,04,17,20,18,8.90
2003,04,17,20,19,8.90
2003,04,17,20,20,8.90
2003,04,17,20,21,8.90
2003,04,17,20,22,9.00
2003,04,17,20,23,9.00
2003,04,17,20,24,9.00
2003,04,17,20,25,8.90
2003,04,17,20,26,8.90
2003,04,17,20,27,8.80
2003,04,17,20,28,8.80
2003,04,17,20,29,9.00
2003,04,17,20,30,9.00
2003,04,17,20,31,9.00
2003,04,17,20,32,9.00
2003,04,17,20,33,8.90
2003,04,17,20,34,8.90
2003,04,17,20,35,8.90
2003,04,17,20,36,9.00
2003,04,17,20,37,9.10
2003,04,17,20,38,9.20
2003,04,17,20,39,9.20
2003,04,17,20,40,9.20
2003,04,17,20,41,9.20
2003,04,17,20,42,9.10
2003,04,17,20,43,9.00
2003,04,17,20,44,9.00
2003,04,17,20,45,8.90
2003,04,17,20,46,8.90
2003,04,17,20,47,8.80
2003,04,17,20,48,8.80
2003,04,17,20,49,8.90
2003,04,17,20,50,8.80
2003,04,17,20,51,8.90
2003,04,17,20,52,8.90
2003,04,17,20,53,8.80
2003,04,17,20,54,8.80
2003,04,17,20,55,8.70
2003,04,17,20,56,8.60
2003,04,17,20,57,8.60
2003,04,17,20,58,8.70
2003,04,17,20,59,8.70
2003,04,17,21,00,8.70
2003,04,17,21,01,8.70
2003,04,17,21,02,8.60
2003,04,17,21,03,8.60
2003,04,17,21,04,8.60
2003,04,17,21,05,8.70
2003,04,17,21,06,8.70
2003,04,17,21,07,8.50
2003,04,17,21,08,8.50
2003,04,17,21,09,8.50
2003,04,17,21,10,8.50
2003,04,17,21,11,8.60
2003,04,17,21,12,8.60
2003,04,17,21,13,8.60
2003,04,17,21,14,8.50
2003,04,17,21,15,8.50
2003,04,17,21,16,8.40
2003,04,17,21,17,8.40
2003,04,17,21,18,8.50
2003,04,17,21,19,8.40
2003,04,17,21,20,8.50
2003,04,17,21,21,8.50
2003,04,17,21,22,8.40
2003,04,17,21,23,8.30
2003,04,17,21,24,8.20
2003,04,17,21,25,8.20
2003,04,17,21,26,8.20
2003,04,17,21,27,8.20
2003,04,17,21,28,8.20
2003,04,17,21,29,8.20
2003,04,17,21,30,8.20
2003,04,17,21,31,8.20
2003,04,17,21,32,8.20
2003,04,17,21,33,8.20
2003,04,17,21,34,8.20
2003,04,17,21,35,8.20
2003,04,17,21,36,8.20
2003,04,17,21,37,8.20
2003,04,17,21,38,8.10
2003,04,17,21,39,8.10
2003,04,17,21,40,8.20
2003,04,17,21,41,8.20
2003,04,17,21,42,8.20
2003,04,17,21,43,8.20
2003,04,17,21,44,8.10
2003,04,17,21,45,8.10
2003,04,17,21,46,8.00
2003,04,17,21,47,8.10
2003,04,17,21,48,8.10
2003,04,17,21,49,8.20
2003,04,17,21,50,8.20
2003,04,17,21,51,8.10
2003,04,17,21,52,8.10
2003,04,17,21,53,8.10
2003,04,17,21,54,8.10
2003,04,17,21,55,8.10
2003,04,17,21,56,8.10
2003,04,17,21,57,8.10
2003,04,17,21,58,8.00
2003,04,17,21,59,8.00
2003,04,17,22,00,8.00
2003,04,17,22,01,8.00
2003,04,17,22,02,8.00
2003,04,17,22,03,7.90
2003,04,17,22,04,7.90
2003,04,17,22,05,7.80
2003,04,17,22,06,7.80
2003,04,17,22,07,7.80
2003,04,17,22,08,7.80
2003,04,17,22,09,7.70
2003,04,17,22,10,7.80
2003,04,17,22,11,7.70
2003,04,17,22,12,7.70
2003,04,17,22,13,7.60
2003,04,17,22,14,7.50
2003,04,17,22,15,7.50
2003,04,17,22,16,7.40
2003,04,17,22,17,7.40
2003,04,17,22,18,7.50
2003,04,17,22,19,7.50
2003,04,17,22,20,7.50
2003,04,17,22,21,7.40
2003,04,17,22,22,7.30
2003,04,17,22,23,7.30
2003,04,17,22,24,7.40
2003,04,17,22,25,7.50
2003,04,17,22,26,7.50
2003,04,17,22,27,7.40
2003,04,17,22,28,7.30
2003,04,17,22,29,7.30
2003,04,17,22,30,7.30
2003,04,17,22,31,7.20
2003,04,17,22,32,7.20
2003,04,17,22,33,7.20
2003,04,17,22,34,7.30
2003,04,17,22,35,7.20
2003,04,17,22,36,7.20
2003,04,17,22,37,7.20
2003,04,17,22,38,7.10
2003,04,17,22,39,7.10
2003,04,17,22,40,7.10
2003,04,17,22,41,7.00
2003,04,17,22,42,7.10
2003,04,17,22,43,7.20
2003,04,17,22,44,7.20
2003,04,17,22,45,7.10
2003,04,17,22,46,7.10
2003,04,17,22,47,7.10
2003,04,17,22,48,7.20
2003,04,17,22,49,7.20
2003,04,17,22,50,7.30
2003,04,17,22,51,7.30
2003,04,17,22,52,7.30
2003,04,17,22,53,7.20
2003,04,17,22,54,7.20
2003,04,17,22,55,7.20
2003,04,17,22,56,7.20
2003,04,17,22,57,7.10
2003,04,17,22,58,7.10
2003,04,17,22,59,7.20
2003,04,17,23,00,7.20
2003,04,17,23,01,7.20
2003,04,17,23,02,7.10
2003,04,17,23,03,7.00
2003,04,17,23,04,7.10
2003,04,17,23,05,7.10
2003,04,17,23,06,7.20
2003,04,17,23,07,7.20
2003,04,17,23,08,7.10
2003,04,17,23,09,7.10
2003,04,17,23,10,7.10
2003,04,17,23,11,7.10
2003,04,17,23,12,7.10
2003,04,17,23,13,7.10
2003,04,17,23,14,7.10
2003,04,17,23,15,7.10
2003,04,17,23,16,7.10
2003,04,17,23,17,7.20
2003,04,17,23,18,7.20
2003,04,17,23,19,7.10
2003,04,17,23,20,7.10
2003,04,17,23,21,7.10
2003,04,17,23,22,7.10
2003,04,17,23,23,7.10
2003,04,17,23,24,7.10
2003,04,17,23,25,7.10
2003,04,17,23,26,7.10
2003,04,17,23,27,7.20
2003,04,17,23,28,7.10
2003,04,17,23,29,7.10
2003,04,17,23,30,7.00
2003,04,17,23,31,7.00
2003,04,17,23,32,7.00
2003,04,17,23,33,7.00
2003,04,17,23,34,6.90
2003,04,17,23,35,6.90
2003,04,17,23,36,6.80
2003,04,17,23,37,6.90
2003,04,17,23,38,6.90
2003,04,17,23,39,6.90
2003,04,17,23,40,6.80
2003,04,17,23,41,6.80
2003,04,17,23,42,6.80
2003,04,17,23,43,6.80
2003,04,17,23,44,6.70
2003,04,17,23,45,6.60
2003,04,17,23,46,6.60
2003,04,17,23,47,6.60
2003,04,17,23,48,6.60
2003,04,17,23,49,6.60
2003,04,17,23,50,6.60
2003,04,17,23,51,6.60
2003,04,17,23,52,6.70
2003,04,17,23,53,6.70
2003,04,17,23,54,6.70
2003,04,17,23,55,6.70
2003,04,17,23,56,6.80
2003,04,17,23,57,6.80
2003,04,17,23,58,6.90
2003,04,17,23,59,6.80
